N733MX KLGB-KGCN

Flight info

Callsign N733MX
Flight time N/A
Altitude 29000
Route ZOOMM3 YELAH GFS PGS
Aircraft SF50/L-VGDW/C

Departure

Time 2026-05-03 20:15
Airport Long Beach International Airport (KLGB)

Arrival

Time N/A
Airport Grand Canyon National Park Airport (KGCN)
Time Latitude Longitude Altitude Speed Heading
2026-05-03 20:15 33.76117 -118.12471 11568 ft 201 kts 48°
2026-05-03 20:15 33.77078 -118.11286 11950 ft 198 kts 48°
2026-05-03 20:15 33.78034 -118.10106 12360 ft 194 kts 48°
2026-05-03 20:15 33.78967 -118.08953 12790 ft 190 kts 47°
2026-05-03 20:16 33.79872 -118.07835 13211 ft 186 kts 47°
2026-05-03 20:16 33.80767 -118.06728 13638 ft 182 kts 47°
2026-05-03 20:16 33.81641 -118.05645 14039 ft 177 kts 47°
2026-05-03 20:16 33.82488 -118.04598 14418 ft 172 kts 47°
2026-05-03 20:17 33.83312 -118.03578 14723 ft 173 kts 47°
2026-05-03 20:17 33.84166 -118.02520 15016 ft 178 kts 46°
2026-05-03 20:17 33.85024 -118.01458 15310 ft 180 kts 46°
2026-05-03 20:17 33.85899 -118.00374 15604 ft 181 kts 46°
2026-05-03 20:18 33.86783 -117.99280 15904 ft 183 kts 46°
2026-05-03 20:18 33.87675 -117.98176 16202 ft 184 kts 46°
2026-05-03 20:18 33.88576 -117.97059 16505 ft 186 kts 46°
2026-05-03 20:18 33.89474 -117.95946 16807 ft 188 kts 45°
2026-05-03 20:19 33.90387 -117.94815 17120 ft 189 kts 45°
2026-05-03 20:19 33.91366 -117.93757 17427 ft 188 kts 37°
2026-05-03 20:19 33.92378 -117.92789 17735 ft 188 kts 35°
2026-05-03 20:19 33.93416 -117.91831 18051 ft 187 kts 34°
2026-05-03 20:20 33.94456 -117.90880 18361 ft 187 kts 34°
2026-05-03 20:20 33.95478 -117.89947 18622 ft 186 kts 33°
2026-05-03 20:20 33.96507 -117.89002 18892 ft 184 kts 33°
2026-05-03 20:20 33.97524 -117.88067 19154 ft 182 kts 32°
2026-05-03 20:21 33.98513 -117.87158 19431 ft 178 kts 32°
2026-05-03 20:21 33.99492 -117.86257 19694 ft 175 kts 31°
2026-05-03 20:21 34.00446 -117.85377 19950 ft 169 kts 30°
2026-05-03 20:21 34.01413 -117.84553 20012 ft 182 kts 26°
2026-05-03 20:22 34.02494 -117.83653 20114 ft 194 kts 28°
2026-05-03 20:22 34.03610 -117.82666 20251 ft 203 kts 30°
2026-05-03 20:22 34.04747 -117.81628 20372 ft 212 kts 31°
2026-05-03 20:22 34.05952 -117.80521 20491 ft 222 kts 31°
2026-05-03 20:23 34.07208 -117.79369 20608 ft 231 kts 31°
2026-05-03 20:23 34.08512 -117.78173 20726 ft 240 kts 32°
2026-05-03 20:23 34.09700 -117.76693 20831 ft 252 kts 53°
2026-05-03 20:23 34.10699 -117.74941 20947 ft 261 kts 54°
2026-05-03 20:24 34.11817 -117.73160 21084 ft 268 kts 49°
2026-05-03 20:24 34.13005 -117.71392 21289 ft 273 kts 49°
2026-05-03 20:24 34.14227 -117.69594 21502 ft 279 kts 48°
2026-05-03 20:24 34.15460 -117.67781 21704 ft 285 kts 48°
2026-05-03 20:25 34.16736 -117.65909 21915 ft 291 kts 48°
2026-05-03 20:25 34.18038 -117.63998 22131 ft 296 kts 48°
2026-05-03 20:25 34.19340 -117.62086 22391 ft 298 kts 48°
2026-05-03 20:25 34.20674 -117.60138 22655 ft 301 kts 47°
2026-05-03 20:26 34.22018 -117.58165 22914 ft 305 kts 47°
2026-05-03 20:26 34.23341 -117.56198 23167 ft 306 kts 48°
2026-05-03 20:26 34.24685 -117.54188 23435 ft 306 kts 47°
2026-05-03 20:26 34.26027 -117.52183 23678 ft 306 kts 47°
2026-05-03 20:27 34.27373 -117.50176 23890 ft 307 kts 47°
2026-05-03 20:27 34.28709 -117.48188 24105 ft 307 kts 47°
2026-05-03 20:27 34.30058 -117.46178 24321 ft 308 kts 47°
2026-05-03 20:27 34.31421 -117.44169 24546 ft 309 kts 46°
2026-05-03 20:28 34.32807 -117.42171 24757 ft 310 kts 45°